Retour au catalogue

SL-8 R/B

ActifPO
NORAD 21938·ROCKET BODY·🇷🇺 Russia

Lancé Apr 15, 1992 depuis Plesetsk Cosmodrome

Loading…

Prochains Passages (prochaines 24 heures)

TLE

FraisSource: Space-Track

Époque: Sep 14, 2026, 07:09 UTC

1 21938U 92020B   26257.29839155  .00000091  00000-0  78248-4 0  9993
2 21938  82.9341  13.6525 0030154 129.8226 259.2311 13.75559907727063

Suivez SL-8 R/B en temps réel avec AllMySat

Download on the App Store